Lapse_Rate
5.4 5.5 5.7 5.8 5.8 6.0 6.2 6.1 6.2 6.2 6.3 6.5 6.7 6.8 6.7 6.7 6.6 6.4 6.5 6.5 6.5 6.5 6.5 6.5 6.5 6.7 6.7 6.8 6.9 6.8 6.8 6.8 6.8 6.9 6.9 6.8 6.7 6.5 6.3 6.2 6.1 6.0 6.2
5.2 5.3 5.3 5.5 5.7 6.0 6.1 6.0 6.0 6.2 6.2 6.3 6.6 6.6 6.6 6.7 6.6 6.4 6.5 6.3 6.2 6.4 6.5 6.6 6.6 6.7 6.7 6.8 6.9 6.8 6.8 6.7 6.8 6.8 6.8 6.8 6.8 6.5 6.3 6.2 6.1 6.1 6.2
5.2 5.4 5.5 5.3 5.2 6.0 6.0 6.2 5.9 5.9 6.4 6.3 6.4 6.5 6.5 6.6 6.6 6.4 6.4 6.3 6.3 6.2 6.4 6.6 6.5 6.5 6.6 6.6 6.8 6.9 6.9 6.7 6.7 6.8 6.8 6.8 6.8 6.6 6.4 6.2 6.2 6.3 6.4
5.2 4.8 5.3 5.3 5.2 5.6 6.2 6.1 6.0 5.9 6.1 6.3 6.4 6.5 6.6 6.6 6.5 6.4 6.4 6.1 6.2 6.1 6.2 6.5 6.5 6.3 6.4 6.5 6.6 6.7 6.8 6.8 6.7 6.8 6.8 6.7 6.6 6.5 6.4 6.4 6.5 6.5 6.5
4.9 5.2 4.9 5.1 5.1 5.3 5.8 6.2 6.0 6.0 5.9 6.0 6.3 6.5 6.3 6.6 6.5 6.4 6.3 6.1 6.1 6.1 6.1 6.2 6.4 6.3 6.3 6.4 6.4 6.5 6.6 6.7 6.7 6.7 6.7 6.7 6.7 6.5 6.6 6.6 6.7 6.6 6.5
4.9 4.6 4.8 4.8 4.7 5.0 5.6 6.0 6.0 5.9 6.0 5.8 6.0 6.2 6.3 6.4 6.6 6.5 6.3 6.1 6.0 6.0 6.1 6.0 6.2 6.2 6.1 6.2 6.2 6.3 6.4 6.6 6.7 6.6 6.7 6.7 6.6 6.6 6.6 6.8 6.7 6.6 6.5
4.7 4.4 4.8 4.6 4.6 4.5 5.4 5.8 5.9 5.8 5.9 6.0 5.9 6.0 6.2 6.3 6.7 6.7 6.3 6.2 6.0 6.0 6.0 6.0 6.1 6.2 6.2 6.2 6.2 6.2 6.3 6.4 6.5 6.7 6.7 6.7 6.6 6.6 6.7 6.8 6.6 6.5 6.3
4.4 4.5 4.9 4.7 4.7 4.3 4.6 5.7 5.7 5.8 6.0 6.0 5.9 6.2 6.3 6.6 6.8 6.9 6.5 6.4 6.0 5.9 5.9 6.0 6.1 6.1 6.1 6.1 6.1 6.2 6.3 6.4 6.4 6.5 6.5 6.6 6.7 6.6 6.7 6.8 6.5 6.4 6.3
5.0 5.1 5.0 5.7 5.1 5.1 4.7 5.2 5.6 5.9 5.7 6.0 6.2 6.0 6.5 6.8 7.1 6.8 6.6 6.3 6.0 5.9 5.8 5.8 6.0 6.0 6.0 6.0 6.0 6.1 6.1 6.1 6.3 6.4 6.5 6.6 6.6 6.6 6.6 6.7 6.6 6.5 6.4
4.3 4.4 4.9 5.4 5.4 4.5 4.8 5.7 5.8 5.8 5.8 5.8 5.9 6.1 6.4 6.6 6.7 6.6 6.4 6.0 5.9 5.6 5.7 5.8 5.8 5.9 5.9 6.0 5.9 6.0 6.0 5.9 5.9 6.1 6.4 6.5 6.6 6.6 6.6 6.5 6.5 6.4 6.3
4.5 4.3 4.8 5.0 4.4 4.8 4.5 4.9 6.0 5.7 5.5 5.7 5.8 6.0 6.4 6.8 6.6 6.4 6.2 6.2 6.0 5.5 5.5 5.7 5.7 5.7 5.8 5.7 5.8 5.8 5.8 5.9 5.9 5.9 6.1 6.2 6.3 6.3 6.3 6.2 6.3 6.3 6.2
4.3 4.4 4.4 4.5 4.1 4.7 5.3 5.1 5.3 5.3 5.6 5.6 5.8 5.9 5.9 5.9 6.3 6.0 6.0 6.1 5.9 5.7 5.6 5.6 5.6 5.6 5.7 5.7 5.6 5.7 5.7 5.7 5.7 5.8 5.9 5.9 6.0 6.0 6.0 6.0 6.1 6.1 6.0
4.2 4.3 4.6 4.6 4.3 4.5 5.8 4.4 5.0 4.8 5.9 5.3 5.6 5.9 5.9 5.5 5.0 5.6 5.8 5.9 5.9 5.8 5.6 5.5 5.6 5.5 5.6 5.6 5.6 5.6 5.6 5.7 5.7 5.6 5.7 5.7 5.7 5.7 5.8 5.8 5.8 5.9 5.8
4.3 4.7 5.3 5.2 5.4 4.9 5.2 4.9 4.9 5.2 5.9 5.2 5.5 5.7 5.6 5.3 5.2 5.3 5.7 5.8 5.7 5.6 5.7 5.3 5.4 5.5 5.5 5.7 5.7 5.7 5.6 5.5 5.4 5.4 5.5 5.5 5.5 5.6 5.6 5.6 5.6 5.6 5.6
4.7 5.4 5.9 6.1 5.9 5.3 5.0 4.9 6.0 5.3 6.0 5.3 5.4 5.4 5.3 5.1 5.2 5.3 5.5 5.7 5.7 5.6 5.5 5.4 5.2 5.3 5.4 5.5 5.6 5.6 5.5 5.5 5.5 5.4 5.4 5.5 5.4 5.5 5.4 5.3 5.4 5.4 5.5
4.1 5.3 5.6 6.0 5.9 5.9 5.5 5.1 6.4 5.4 6.7 5.6 5.1 5.2 5.1 5.3 5.3 5.4 5.6 5.8 5.8 5.7 5.7 5.4 5.3 5.2 5.2 5.3 5.4 5.5 5.5 5.6 5.5 5.4 5.4 5.3 5.5 5.6 5.6 5.3 5.2 5.2 5.3
4.5 5.6 5.8 5.8 5.8 5.3 5.6 5.7 6.7 6.9 6.2 5.8 5.3 5.3 5.3 5.3 5.4 5.5 5.7 5.8 5.9 5.9 5.8 5.4 5.4 5.3 5.3 5.3 5.4 5.5 5.6 5.6 5.5 5.5 5.5 5.3 5.3 5.4 5.5 5.4 5.3 5.2 5.4
4.1 3.9 4.6 5.2 5.6 4.8 5.4 5.2 6.0 6.3 6.0 5.8 5.7 5.5 5.5 5.4 5.4 5.7 5.8 5.9 5.8 5.7 5.9 5.7 5.5 5.5 5.3 5.4 5.5 5.6 5.8 5.6 5.6 5.5 5.5 5.5 5.4 5.4 5.6 5.5 5.4 5.1 5.0
4.6 3.8 4.1 4.8 4.6 4.6 5.3 6.0 6.0 6.1 5.9 6.0 5.8 5.8 5.6 5.4 5.4 5.7 5.8 5.8 5.8 5.6 5.7 5.7 5.7 5.5 5.5 5.8 5.8 6.1 5.9 5.6 5.5 5.4 5.5 5.4 5.3 5.4 5.4 5.4 5.5 5.6 5.2
4.5 4.4 4.8 5.1 5.1 5.2 5.6 6.3 6.4 6.4 6.4 6.5 6.2 5.6 5.4 5.3 5.5 5.5 5.7 5.8 5.7 5.7 5.8 5.8 5.8 5.7 5.9 5.9 6.2 6.4 6.2 5.7 5.4 5.5 5.5 5.5 5.5 5.5 5.4 5.4 5.4 5.3 5.3
5.0 4.6 4.3 5.2 5.7 5.7 6.0 6.6 6.8 7.1 6.6 5.9 5.5 5.5 5.5 5.4 5.4 5.6 5.6 5.8 6.0 6.6 6.1 5.9 6.0 5.9 6.0 5.9 6.0 6.0 6.1 5.5 5.2 5.7 5.4 5.6 5.3 5.4 5.4 5.4 5.5 5.4 5.1
4.1 4.8 5.1 5.5 5.4 5.5 5.9 6.4 6.9 6.9 6.1 6.1 6.1 5.9 5.8 5.8 5.8 5.8 5.7 5.8 6.1 6.3 6.0 5.8 6.0 6.3 6.2 6.0 5.8 5.8 5.5 5.5 5.4 5.8 5.2 5.6 5.4 5.4 5.7 5.3 4.9 5.1 5.1
4.5 5.6 5.1 4.8 4.7 5.4 5.4 5.6 6.1 6.5 6.3 6.1 6.3 6.2 6.1 6.0 6.0 6.0 5.9 5.6 5.9 6.0 5.9 5.5 5.5 5.8 5.8 5.8 5.6 5.7 5.6 5.3 5.3 5.4 5.4 5.5 5.5 5.5 5.5 5.4 5.3 5.3 4.8
5.1 5.3 5.0 5.2 5.6 5.5 5.2 5.4 5.5 5.9 6.3 6.3 6.3 6.2 6.0 5.9 5.6 5.9 5.4 5.2 5.4 5.5 5.2 5.3 5.5 5.9 5.9 5.5 5.6 5.6 5.3 5.2 5.2 5.1 5.1 5.3 5.5 5.4 5.3 5.1 5.1 5.1 4.9
5.2 5.5 5.5 5.6 5.4 5.4 5.4 5.5 5.5 5.6 5.4 5.6 5.7 5.7 5.3 5.4 5.4 5.0 4.9 5.3 5.3 5.4 5.3 5.0 5.1 5.0 5.1 5.1 5.3 5.2 5.2 5.1 5.2 5.2 5.1 5.1 5.3 5.3 5.0 4.8 4.9 4.7 4.5
5.5 5.6 5.4 5.4 5.5 5.4 5.5 5.5 5.6 5.5 5.3 5.7 5.2 5.3 5.3 5.3 5.2 5.2 5.2 5.0 4.8 4.7 4.9 5.0 5.0 5.1 5.0 5.1 5.1 5.0 4.9 5.1 5.1 5.0 5.1 5.1 5.1 5.0 4.8 4.7 4.6 4.3 4.1
Wind_Speed
12 15 13 12 14 11 10 10 13 14 15 15 14 15 12 15 13 10 9 7 9 15 11 11 10 12 11 13 12 15 13 13 14 15 14 16 15 15 12 13 19 20 21
14 15 13 13 13 14 10 11 13 13 13 14 13 14 13 14 13 11 7 11 2 14 11 9 9 11 12 12 10 13 11 12 12 14 13 14 14 14 13 12 16 19 20
19 15 14 12 14 14 13 12 12 13 12 13 12 13 12 16 11 12 6 7 5 8 7 10 10 9 11 9 10 11 11 11 11 13 12 14 13 14 13 11 13 16 19
23 18 12 13 16 15 13 11 10 8 9 9 9 8 11 16 12 11 9 7 5 6 7 8 7 8 9 9 9 10 10 10 9 11 10 11 14 12 11 13 11 11 15
16 17 14 14 20 15 13 10 8 9 8 8 9 8 9 11 11 9 9 7 6 4 3 6 7 9 6 7 8 8 9 9 8 9 10 10 12 10 11 12 12 10 11
18 13 12 11 15 12 9 9 10 9 9 9 8 8 6 6 9 7 8 6 5 5 5 5 5 3 5 6 7 8 8 8 5 9 10 10 10 9 9 10 13 12 9
18 16 11 10 9 11 12 11 9 11 5 10 8 6 5 4 4 5 4 5 4 4 4 4 5 5 2 7 6 6 6 7 6 7 8 10 8 9 8 8 11 11 11
19 18 16 10 10 6 11 10 12 9 3 9 6 4 3 1 1 3 4 4 6 4 4 4 5 5 5 4 3 4 4 4 6 7 9 8 8 6 7 9 10 11 11
20 19 19 15 13 10 9 9 9 11 7 5 11 4 3 3 3 2 5 4 6 6 6 6 6 6 6 5 4 3 2 2 5 6 8 5 8 7 8 9 9 9 9
20 20 21 21 16 12 12 8 6 7 9 8 6 2 1 5 4 3 3 5 5 6 7 7 7 7 6 5 6 7 5 3 5 6 5 5 6 6 8 8 7 8 10
19 24 24 21 15 11 14 12 9 9 10 10 8 3 2 3 5 2 3 4 4 5 8 9 9 8 8 7 6 7 9 5 7 6 5 6 7 7 6 7 6 5 5
11 16 22 19 20 12 15 13 11 13 11 10 7 6 4 3 3 2 2 2 5 5 6 10 11 11 10 9 9 9 10 8 5 7 8 7 6 6 7 5 5 4 4
12 16 18 17 14 15 14 18 15 13 12 10 11 7 5 4 4 3 2 2 2 2 3 7 13 13 12 12 11 12 11 11 8 10 9 9 7 7 6 6 4 4 4
13 16 17 17 16 17 16 19 14 12 12 11 12 9 6 5 5 4 4 4 2 2 3 5 9 15 15 14 15 16 11 13 12 10 11 10 7 4 3 6 5 5 4
10 13 17 15 14 13 14 15 12 14 13 12 11 11 9 6 6 5 4 3 3 2 3 3 4 11 14 12 14 14 13 14 15 12 13 9 14 10 4 8 7 6 5
12 13 11 15 14 14 14 15 12 14 13 10 9 12 11 7 7 5 4 4 2 3 2 4 4 3 10 13 15 15 13 16 16 16 15 15 16 13 9 11 14 11 9
12 14 13 13 14 15 15 15 13 14 14 13 11 12 13 10 8 6 5 4 4 3 4 2 2 5 4 9 11 14 13 13 13 17 17 20 19 16 14 16 16 14 13
11 13 14 12 14 13 14 14 13 13 15 13 13 12 12 7 10 9 7 7 6 6 4 7 4 4 6 7 10 13 12 12 12 15 18 22 21 19 18 18 18 17 15
6 8 11 15 14 15 14 13 13 12 13 12 13 13 13 12 11 8 9 8 7 6 6 4 3 2 2 2 3 4 8 11 12 16 17 22 23 21 19 19 20 19 19
8 8 9 10 11 12 12 12 12 12 12 11 12 13 12 13 13 12 9 9 8 6 7 6 4 4 3 3 3 3 5 6 8 11 14 18 20 20 19 19 21 22 20
7 8 6 7 7 8 7 10 11 11 11 11 10 10 10 12 12 11 7 8 8 8 6 7 5 3 4 3 5 5 6 5 7 8 9 14 15 16 19 21 20 23 22
11 9 9 9 10 7 14 15 12 9 10 10 9 9 9 10 10 12 13 10 12 10 9 6 6 7 9 6 4 6 6 3 3 12 6 8 14 9 15 18 21 21 23
6 10 9 9 8 6 13 14 13 8 9 9 9 8 7 6 9 8 12 11 11 13 9 11 8 10 7 8 6 6 7 6 5 2 9 7 7 8 14 16 21 23 24
7 7 8 9 8 6 13 13 13 6 6 8 9 9 9 8 7 7 7 6 9 9 12 7 9 8 9 8 12 7 8 5 2 2 7 4 3 6 9 14 19 21 24
7 7 8 8 9 8 11 11 11 7 7 8 7 7 8 9 10 12 7 8 7 8 9 20 21 17 14 16 15 5 4 3 3 3 6 3 2 2 2 3 13 19 22
6 6 7 8 9 8 10 11 10 5 5 4 4 6 11 7 12 13 8 6 7 7 5 4 4 10 15 15 22 16 7 6 3 1 5 6 3 3 2 2 6 13 16
Wind_Direction
170 168 170 164 160 158 161 154 152 151 145 143 141 130 124 117 119 117 116 88 128 113 119 123 110 104 108 101 90 86 78 78 77 76 71 65 68 62 52 46 47 46 55
167 170 167 164 161 165 162 159 159 157 150 145 142 133 125 117 126 124 130 97 100 116 125 120 112 111 108 100 102 92 83 78 78 73 67 74 62 62 58 41 47 50 55
171 165 169 167 163 161 152 158 159 156 151 147 141 135 131 124 130 123 138 138 127 112 125 116 117 118 111 103 95 93 87 80 72 70 67 64 63 54 65 56 40 51 51
172 168 167 169 163 156 158 163 163 160 160 153 146 142 138 130 130 127 124 128 106 99 103 115 120 116 107 117 107 103 93 88 87 82 71 71 65 59 53 65 59 44 50
178 169 169 166 161 159 162 164 168 165 160 157 149 141 136 135 135 136 128 122 111 96 114 101 87 87 123 113 117 104 102 83 80 81 78 76 67 64 64 57 65 61 36
169 169 140 157 158 161 163 164 168 170 166 155 143 128 122 117 133 136 143 130 128 124 121 129 125 107 56 127 129 118 102 108 95 98 86 77 76 67 68 53 62 61 64
163 148 128 140 180 172 171 167 162 160 145 150 125 88 70 79 117 133 146 148 150 150 156 151 132 126 122 105 83 138 128 119 112 103 100 104 82 76 68 66 67 63 64
176 174 161 161 156 174 175 167 166 167 134 173 154 122 137 89 222 167 159 179 182 180 202 198 172 163 144 121 104 139 95 135 129 127 109 103 97 86 93 82 75 74 72
178 175 172 161 158 160 188 181 182 172 168 185 175 145 149 175 133 185 207 197 195 195 212 215 203 195 188 171 167 170 215 121 157 147 134 124 110 105 94 92 88 80 79
182 177 172 168 164 167 170 193 190 178 175 181 178 45 66 138 164 179 217 216 215 206 207 213 215 209 205 203 213 208 215 232 182 152 140 145 123 123 117 107 94 91 71
188 185 179 172 173 172 169 177 195 184 190 181 185 153 127 87 88 136 171 190 215 216 210 214 212 215 207 202 213 219 213 225 206 195 170 175 154 149 136 131 110 99 93
192 191 188 179 184 183 164 167 192 197 191 190 186 169 170 144 160 149 142 184 207 207 208 214 215 218 215 211 216 224 221 221 223 195 210 194 179 165 153 142 123 118 112
196 194 189 185 184 182 173 174 185 197 190 191 186 181 168 158 150 137 126 123 174 180 193 225 222 219 216 212 216 218 223 223 229 207 207 198 183 190 175 167 151 138 131
194 191 191 197 191 185 176 179 173 190 191 195 184 184 177 169 160 165 159 147 117 178 229 233 215 219 221 216 212 215 222 221 222 212 207 209 189 200 250 196 170 158 158
182 188 189 188 192 181 177 183 167 183 188 189 184 185 185 179 176 178 165 154 141 162 232 220 211 213 213 216 220 208 213 219 220 223 212 205 180 195 229 212 191 180 165
185 176 176 191 184 178 171 190 163 181 181 185 188 186 195 189 187 186 175 174 173 163 199 209 205 180 207 211 213 210 215 220 222 222 217 192 186 196 198 176 174 179 180
177 169 174 181 177 173 176 181 169 174 184 185 188 189 198 190 196 194 188 188 187 173 197 190 243 185 194 215 211 211 210 213 222 221 215 197 194 195 196 189 178 185 189
170 171 174 178 180 170 186 174 168 179 186 185 188 192 201 189 201 198 196 197 200 201 185 225 181 199 205 214 220 209 204 212 216 217 214 202 203 205 201 191 189 190 197
137 158 170 177 175 178 178 175 176 176 186 190 188 194 200 194 206 203 204 209 214 208 210 204 195 163 194 175 195 208 209 212 217 217 210 204 204 208 209 200 196 197 201
158 166 180 173 175 177 180 174 174 178 186 190 190 197 197 196 206 204 204 208 207 205 206 215 207 189 196 185 205 189 209 217 216 214 214 207 206 209 203 205 204 205 204
167 153 156 152 153 165 163 168 175 180 182 186 191 193 197 201 204 199 196 202 195 206 208 217 212 183 189 181 202 193 215 200 223 202 212 214 208 210 207 206 213 207 207
164 161 157 163 172 174 167 166 166 173 177 176 184 190 193 184 198 197 205 193 194 198 206 206 213 217 216 203 181 196 191 158 226 192 193 224 204 211 207 204 204 203 203
172 162 169 178 174 166 168 168 163 174 180 180 176 176 182 194 193 201 211 209 205 205 202 202 218 218 230 199 181 192 198 198 208 161 195 219 179 219 206 208 208 210 202
187 177 162 194 168 188 188 172 170 154 169 174 175 178 188 184 188 189 198 204 219 212 218 217 221 229 219 189 196 200 204 193 79 140 189 203 152 216 190 210 214 211 201
183 183 178 182 180 187 195 186 160 163 172 183 187 176 182 187 190 192 189 202 219 228 227 229 229 234 228 209 185 129 156 142 196 209 199 164 173 145 166 199 217 216 209
165 163 164 182 177 184 177 184 173 166 181 181 173 178 194 194 185 186 201 202 219 231 198 208 221 225 224 206 186 194 176 196 143 170 203 173 154 150 197 196 206 212 221